Year,Month,Day,Hour,Minute,Value (Times are PST for temperature in C)
2007,04,05,00,00,7.50
2007,04,05,00,01,7.60
2007,04,05,00,02,7.60
2007,04,05,00,03,7.60
2007,04,05,00,04,7.60
2007,04,05,00,05,7.60
2007,04,05,00,06,7.60
2007,04,05,00,07,7.60
2007,04,05,00,08,7.70
2007,04,05,00,09,7.70
2007,04,05,00,10,7.70
2007,04,05,00,11,7.70
2007,04,05,00,12,7.80
2007,04,05,00,13,7.80
2007,04,05,00,14,7.80
2007,04,05,00,15,7.80
2007,04,05,00,16,7.80
2007,04,05,00,17,7.80
2007,04,05,00,18,7.80
2007,04,05,00,19,7.80
2007,04,05,00,20,7.80
2007,04,05,00,21,7.80
2007,04,05,00,22,7.80
2007,04,05,00,23,7.90
2007,04,05,00,24,7.90
2007,04,05,00,25,7.90
2007,04,05,00,26,7.90
2007,04,05,00,27,7.90
2007,04,05,00,28,8.00
2007,04,05,00,29,8.00
2007,04,05,00,30,8.10
2007,04,05,00,31,8.10
2007,04,05,00,32,8.20
2007,04,05,00,33,8.20
2007,04,05,00,34,8.20
2007,04,05,00,35,8.30
2007,04,05,00,36,8.30
2007,04,05,00,37,8.30
2007,04,05,00,38,8.30
2007,04,05,00,39,8.30
2007,04,05,00,40,8.30
2007,04,05,00,41,8.30
2007,04,05,00,42,8.30
2007,04,05,00,43,8.30
2007,04,05,00,44,8.20
2007,04,05,00,45,8.20
2007,04,05,00,46,8.20
2007,04,05,00,47,8.20
2007,04,05,00,48,8.20
2007,04,05,00,49,8.20
2007,04,05,00,50,8.20
2007,04,05,00,51,8.20
2007,04,05,00,52,8.20
2007,04,05,00,53,8.20
2007,04,05,00,54,8.10
2007,04,05,00,55,8.10
2007,04,05,00,56,8.10
2007,04,05,00,57,8.10
2007,04,05,00,58,8.10
2007,04,05,00,59,8.10
2007,04,05,01,00,8.10
2007,04,05,01,01,8.20
2007,04,05,01,02,8.20
2007,04,05,01,03,8.20
2007,04,05,01,04,8.20
2007,04,05,01,05,8.20
2007,04,05,01,06,8.20
2007,04,05,01,07,8.20
2007,04,05,01,08,8.20
2007,04,05,01,09,8.20
2007,04,05,01,10,8.20
2007,04,05,01,11,8.20
2007,04,05,01,12,8.20
2007,04,05,01,13,8.20
2007,04,05,01,14,8.20
2007,04,05,01,15,8.20
2007,04,05,01,16,8.20
2007,04,05,01,17,8.20
2007,04,05,01,18,8.20
2007,04,05,01,19,8.20
2007,04,05,01,20,8.20
2007,04,05,01,21,8.20
2007,04,05,01,22,8.20
2007,04,05,01,23,8.20
2007,04,05,01,24,8.20
2007,04,05,01,25,8.20
2007,04,05,01,26,8.20
2007,04,05,01,27,8.20
2007,04,05,01,28,8.20
2007,04,05,01,29,8.20
2007,04,05,01,30,8.20
2007,04,05,01,31,8.20
2007,04,05,01,32,8.20
2007,04,05,01,33,8.20
2007,04,05,01,34,8.20
2007,04,05,01,35,8.20
2007,04,05,01,36,8.20
2007,04,05,01,37,8.20
2007,04,05,01,38,8.20
2007,04,05,01,39,8.20
2007,04,05,01,40,8.20
2007,04,05,01,41,8.20
2007,04,05,01,42,8.20
2007,04,05,01,43,8.20
2007,04,05,01,44,8.20
2007,04,05,01,45,8.20
2007,04,05,01,46,8.20
2007,04,05,01,47,8.20
2007,04,05,01,48,8.30
2007,04,05,01,49,8.30
2007,04,05,01,50,8.30
2007,04,05,01,51,8.30
2007,04,05,01,52,8.30
2007,04,05,01,53,8.30
2007,04,05,01,54,8.30
2007,04,05,01,55,8.30
2007,04,05,01,56,8.20
2007,04,05,01,57,8.20
2007,04,05,01,58,8.20
2007,04,05,01,59,8.20
2007,04,05,02,00,8.20
2007,04,05,02,01,8.20
2007,04,05,02,02,8.20
2007,04,05,02,03,8.20
2007,04,05,02,04,8.20
2007,04,05,02,05,8.20
2007,04,05,02,06,8.20
2007,04,05,02,07,8.20
2007,04,05,02,08,8.20
2007,04,05,02,09,8.20
2007,04,05,02,10,8.20
2007,04,05,02,11,8.20
2007,04,05,02,12,8.20
2007,04,05,02,13,8.20
2007,04,05,02,14,8.20
2007,04,05,02,15,8.20
2007,04,05,02,16,8.20
2007,04,05,02,17,8.20
2007,04,05,02,18,8.20
2007,04,05,02,19,8.20
2007,04,05,02,20,8.20
2007,04,05,02,21,8.20
2007,04,05,02,22,8.20
2007,04,05,02,23,8.20
2007,04,05,02,24,8.20
2007,04,05,02,25,8.20
2007,04,05,02,26,8.10
2007,04,05,02,27,8.10
2007,04,05,02,28,8.10
2007,04,05,02,29,8.10
2007,04,05,02,30,8.10
2007,04,05,02,31,8.10
2007,04,05,02,32,8.10
2007,04,05,02,33,8.00
2007,04,05,02,34,8.00
2007,04,05,02,35,8.00
2007,04,05,02,36,8.00
2007,04,05,02,37,8.00
2007,04,05,02,38,7.90
2007,04,05,02,39,7.90
2007,04,05,02,40,7.90
2007,04,05,02,41,7.90
2007,04,05,02,42,7.90
2007,04,05,02,43,7.90
2007,04,05,02,44,7.90
2007,04,05,02,45,7.90
2007,04,05,02,46,7.90
2007,04,05,02,47,7.90
2007,04,05,02,48,8.00
2007,04,05,02,49,8.00
2007,04,05,02,50,8.10
2007,04,05,02,51,8.10
2007,04,05,02,52,8.20
2007,04,05,02,53,8.20
2007,04,05,02,54,8.20
2007,04,05,02,55,8.30
2007,04,05,02,56,8.30
2007,04,05,02,57,8.30
2007,04,05,02,58,8.40
2007,04,05,02,59,8.40
2007,04,05,03,00,8.50
2007,04,05,03,01,8.50
2007,04,05,03,02,8.50
2007,04,05,03,03,8.60
2007,04,05,03,04,8.60
2007,04,05,03,05,8.60
2007,04,05,03,06,8.60
2007,04,05,03,07,8.70
2007,04,05,03,08,8.70
2007,04,05,03,09,8.70
2007,04,05,03,10,8.70
2007,04,05,03,11,8.60
2007,04,05,03,12,8.60
2007,04,05,03,13,8.60
2007,04,05,03,14,8.60
2007,04,05,03,15,8.50
2007,04,05,03,16,8.50
2007,04,05,03,17,8.50
2007,04,05,03,18,8.50
2007,04,05,03,19,8.50
2007,04,05,03,20,8.40
2007,04,05,03,21,8.40
2007,04,05,03,22,8.40
2007,04,05,03,23,8.40
2007,04,05,03,24,8.40
2007,04,05,03,25,8.40
2007,04,05,03,26,8.40
2007,04,05,03,27,8.40
2007,04,05,03,28,8.30
2007,04,05,03,29,8.30
2007,04,05,03,30,8.30
2007,04,05,03,31,8.30
2007,04,05,03,32,8.30
2007,04,05,03,33,8.30
2007,04,05,03,34,8.30
2007,04,05,03,35,8.20
2007,04,05,03,36,8.20
2007,04,05,03,37,8.20
2007,04,05,03,38,8.20
2007,04,05,03,39,8.20
2007,04,05,03,40,8.20
2007,04,05,03,41,8.20
2007,04,05,03,42,8.20
2007,04,05,03,43,8.20
2007,04,05,03,44,8.20
2007,04,05,03,45,8.20
2007,04,05,03,46,8.20
2007,04,05,03,47,8.20
2007,04,05,03,48,8.20
2007,04,05,03,49,8.20
2007,04,05,03,50,8.20
2007,04,05,03,51,8.20
2007,04,05,03,52,8.20
2007,04,05,03,53,8.20
2007,04,05,03,54,8.20
2007,04,05,03,55,8.20
2007,04,05,03,56,8.20
2007,04,05,03,57,8.20
2007,04,05,03,58,8.20
2007,04,05,03,59,8.20
2007,04,05,04,00,8.20
2007,04,05,04,01,8.20
2007,04,05,04,02,8.20
2007,04,05,04,03,8.20
2007,04,05,04,04,8.20
2007,04,05,04,05,8.20
2007,04,05,04,06,8.20
2007,04,05,04,07,8.20
2007,04,05,04,08,8.20
2007,04,05,04,09,8.20
2007,04,05,04,10,8.20
2007,04,05,04,11,8.30
2007,04,05,04,12,8.30
2007,04,05,04,13,8.30
2007,04,05,04,14,8.30
2007,04,05,04,15,8.30
2007,04,05,04,16,8.30
2007,04,05,04,17,8.40
2007,04,05,04,18,8.40
2007,04,05,04,19,8.40
2007,04,05,04,20,8.40
2007,04,05,04,21,8.40
2007,04,05,04,22,8.40
2007,04,05,04,23,8.40
2007,04,05,04,24,8.40
2007,04,05,04,25,8.40
2007,04,05,04,26,8.40
2007,04,05,04,27,8.40
2007,04,05,04,28,8.40
2007,04,05,04,29,8.40
2007,04,05,04,30,8.40
2007,04,05,04,31,8.40
2007,04,05,04,32,8.40
2007,04,05,04,33,8.40
2007,04,05,04,34,8.40
2007,04,05,04,35,8.30
2007,04,05,04,36,8.30
2007,04,05,04,37,8.30
2007,04,05,04,38,8.30
2007,04,05,04,39,8.30
2007,04,05,04,40,8.40
2007,04,05,04,41,8.40
2007,04,05,04,42,8.40
2007,04,05,04,43,8.40
2007,04,05,04,44,8.40
2007,04,05,04,45,8.40
2007,04,05,04,46,8.40
2007,04,05,04,47,8.40
2007,04,05,04,48,8.40
2007,04,05,04,49,8.40
2007,04,05,04,50,8.40
2007,04,05,04,51,8.30
2007,04,05,04,52,8.30
2007,04,05,04,53,8.30
2007,04,05,04,54,8.30
2007,04,05,04,55,8.30
2007,04,05,04,56,8.30
2007,04,05,04,57,8.30
2007,04,05,04,58,8.30
2007,04,05,04,59,8.20
2007,04,05,05,00,8.20
2007,04,05,05,01,8.20
2007,04,05,05,02,8.20
2007,04,05,05,03,8.20
2007,04,05,05,04,8.20
2007,04,05,05,05,8.20
2007,04,05,05,06,8.20
2007,04,05,05,07,8.20
2007,04,05,05,08,8.20
2007,04,05,05,09,8.20
2007,04,05,05,10,8.20
2007,04,05,05,11,8.20
2007,04,05,05,12,8.20
2007,04,05,05,13,8.20
2007,04,05,05,14,8.20
2007,04,05,05,15,8.20
2007,04,05,05,16,8.20
2007,04,05,05,17,8.20
2007,04,05,05,18,8.20
2007,04,05,05,19,8.20
2007,04,05,05,20,8.20
2007,04,05,05,21,8.20
2007,04,05,05,22,8.20
2007,04,05,05,23,8.20
2007,04,05,05,24,8.20
2007,04,05,05,25,8.20
2007,04,05,05,26,8.20
2007,04,05,05,27,8.20
2007,04,05,05,28,8.20
2007,04,05,05,29,8.20
2007,04,05,05,30,8.20
2007,04,05,05,31,8.20
2007,04,05,05,32,8.20
2007,04,05,05,33,8.10
2007,04,05,05,34,8.10
2007,04,05,05,35,8.10
2007,04,05,05,36,8.10
2007,04,05,05,37,8.00
2007,04,05,05,38,8.00
2007,04,05,05,39,8.00
2007,04,05,05,40,7.90
2007,04,05,05,41,7.90
2007,04,05,05,42,7.90
2007,04,05,05,43,7.90
2007,04,05,05,44,7.80
2007,04,05,05,45,7.80
2007,04,05,05,46,7.80
2007,04,05,05,47,7.80
2007,04,05,05,48,7.80
2007,04,05,05,49,7.80
2007,04,05,05,50,7.80
2007,04,05,05,51,7.80
2007,04,05,05,52,7.80
2007,04,05,05,53,7.90
2007,04,05,05,54,7.90
2007,04,05,05,55,7.90
2007,04,05,05,56,7.90
2007,04,05,05,57,8.00
2007,04,05,05,58,8.00
2007,04,05,05,59,8.00
2007,04,05,06,00,8.00
2007,04,05,06,01,8.00
2007,04,05,06,02,8.00
2007,04,05,06,03,8.00
2007,04,05,06,04,8.00
2007,04,05,06,05,8.10
2007,04,05,06,06,8.10
2007,04,05,06,07,8.10
2007,04,05,06,08,8.00
2007,04,05,06,09,8.00
2007,04,05,06,10,8.00
2007,04,05,06,11,8.00
2007,04,05,06,12,8.00
2007,04,05,06,13,8.00
2007,04,05,06,14,8.00
2007,04,05,06,15,8.00
2007,04,05,06,16,8.00
2007,04,05,06,17,8.00
2007,04,05,06,18,8.00
2007,04,05,06,19,8.00
2007,04,05,06,20,8.00
2007,04,05,06,21,8.00
2007,04,05,06,22,8.00
2007,04,05,06,23,8.00
2007,04,05,06,24,8.00
2007,04,05,06,25,8.00
2007,04,05,06,26,8.00
2007,04,05,06,27,8.00
2007,04,05,06,28,8.00
2007,04,05,06,29,8.00
2007,04,05,06,30,8.00
2007,04,05,06,31,8.00
2007,04,05,06,32,8.00
2007,04,05,06,33,8.00
2007,04,05,06,34,8.00
2007,04,05,06,35,8.00
2007,04,05,06,36,8.00
2007,04,05,06,37,8.10
2007,04,05,06,38,8.10
2007,04,05,06,39,8.10
2007,04,05,06,40,8.10
2007,04,05,06,41,8.10
2007,04,05,06,42,8.10
2007,04,05,06,43,8.10
2007,04,05,06,44,8.10
2007,04,05,06,45,8.10
2007,04,05,06,46,8.20
2007,04,05,06,47,8.20
2007,04,05,06,48,8.20
2007,04,05,06,49,8.20
2007,04,05,06,50,8.20
2007,04,05,06,51,8.20
2007,04,05,06,52,8.20
2007,04,05,06,53,8.30
2007,04,05,06,54,8.30
2007,04,05,06,55,8.30
2007,04,05,06,56,8.30
2007,04,05,06,57,8.30
2007,04,05,06,58,8.30
2007,04,05,06,59,8.30
2007,04,05,07,00,8.30
2007,04,05,07,01,8.30
2007,04,05,07,02,8.30
2007,04,05,07,03,8.30
2007,04,05,07,04,8.30
2007,04,05,07,05,8.30
2007,04,05,07,06,8.30
2007,04,05,07,07,8.30
2007,04,05,07,08,8.30
2007,04,05,07,09,8.20
2007,04,05,07,10,8.20
2007,04,05,07,11,8.20
2007,04,05,07,12,8.20
2007,04,05,07,13,8.20
2007,04,05,07,14,8.20
2007,04,05,07,15,8.30
2007,04,05,07,16,8.30
2007,04,05,07,17,8.30
2007,04,05,07,18,8.30
2007,04,05,07,19,8.30
2007,04,05,07,20,8.30
2007,04,05,07,21,8.30
2007,04,05,07,22,8.40
2007,04,05,07,23,8.40
2007,04,05,07,24,8.40
2007,04,05,07,25,8.40
2007,04,05,07,26,8.40
2007,04,05,07,27,8.40
2007,04,05,07,28,8.40
2007,04,05,07,29,8.40
2007,04,05,07,30,8.40
2007,04,05,07,31,8.40
2007,04,05,07,32,8.40
2007,04,05,07,33,8.40
2007,04,05,07,34,8.40
2007,04,05,07,35,8.40
2007,04,05,07,36,8.40
2007,04,05,07,37,8.40
2007,04,05,07,38,8.40
2007,04,05,07,39,8.40
2007,04,05,07,40,8.40
2007,04,05,07,41,8.40
2007,04,05,07,42,8.40
2007,04,05,07,43,8.40
2007,04,05,07,44,8.40
2007,04,05,07,45,8.40
2007,04,05,07,46,8.50
2007,04,05,07,47,8.50
2007,04,05,07,48,8.50
2007,04,05,07,49,8.50
2007,04,05,07,50,8.50
2007,04,05,07,51,8.40
2007,04,05,07,52,8.40
2007,04,05,07,53,8.40
2007,04,05,07,54,8.40
2007,04,05,07,55,8.40
2007,04,05,07,56,8.40
2007,04,05,07,57,8.40
2007,04,05,07,58,8.40
2007,04,05,07,59,8.40
2007,04,05,08,00,8.40
2007,04,05,08,01,8.50
2007,04,05,08,02,8.50
2007,04,05,08,03,8.50
2007,04,05,08,04,8.50
2007,04,05,08,05,8.50
2007,04,05,08,06,8.60
2007,04,05,08,07,8.60
2007,04,05,08,08,8.60
2007,04,05,08,09,8.60
2007,04,05,08,10,8.70
2007,04,05,08,11,8.70
2007,04,05,08,12,8.70
2007,04,05,08,13,8.70
2007,04,05,08,14,8.70
2007,04,05,08,15,8.70
2007,04,05,08,16,8.70
2007,04,05,08,17,8.70
2007,04,05,08,18,8.80
2007,04,05,08,19,8.80
2007,04,05,08,20,8.80
2007,04,05,08,21,8.90
2007,04,05,08,22,8.90
2007,04,05,08,23,8.90
2007,04,05,08,24,9.00
2007,04,05,08,25,9.00
2007,04,05,08,26,9.00
2007,04,05,08,27,9.10
2007,04,05,08,28,9.10
2007,04,05,08,29,9.10
2007,04,05,08,30,9.20
2007,04,05,08,31,9.20
2007,04,05,08,32,9.20
2007,04,05,08,33,9.20
2007,04,05,08,34,9.20
2007,04,05,08,35,9.20
2007,04,05,08,36,9.20
2007,04,05,08,37,9.20
2007,04,05,08,38,9.20
2007,04,05,08,39,9.20
2007,04,05,08,40,9.20
2007,04,05,08,41,9.20
2007,04,05,08,42,9.20
2007,04,05,08,43,9.30
2007,04,05,08,44,9.30
2007,04,05,08,45,9.30
2007,04,05,08,46,9.30
2007,04,05,08,47,9.30
2007,04,05,08,48,9.30
2007,04,05,08,49,9.40
2007,04,05,08,50,9.40
2007,04,05,08,51,9.40
2007,04,05,08,52,9.40
2007,04,05,08,53,9.40
2007,04,05,08,54,9.40
2007,04,05,08,55,9.40
2007,04,05,08,56,9.50
2007,04,05,08,57,9.50
2007,04,05,08,58,9.60
2007,04,05,08,59,9.60
2007,04,05,09,00,9.70
2007,04,05,09,01,9.70
2007,04,05,09,02,9.70
2007,04,05,09,03,9.80
2007,04,05,09,04,9.80
2007,04,05,09,05,9.80
2007,04,05,09,06,9.90
2007,04,05,09,07,9.90
2007,04,05,09,08,9.90
2007,04,05,09,09,9.90
2007,04,05,09,10,9.90
2007,04,05,09,11,9.90
2007,04,05,09,12,10.10
2007,04,05,09,13,10.10
2007,04,05,09,14,10.10
2007,04,05,09,15,10.10
2007,04,05,09,16,10.20
2007,04,05,09,17,10.20
2007,04,05,09,18,10.20
2007,04,05,09,19,10.20
2007,04,05,09,20,10.20
2007,04,05,09,21,10.20
2007,04,05,09,22,10.20
2007,04,05,09,23,10.20
2007,04,05,09,24,10.20
2007,04,05,09,25,10.20
2007,04,05,09,26,10.30
2007,04,05,09,27,10.30
2007,04,05,09,28,10.30
2007,04,05,09,29,10.30
2007,04,05,09,30,10.30
2007,04,05,09,31,10.30
2007,04,05,09,32,10.30
2007,04,05,09,33,10.30
2007,04,05,09,34,10.30
2007,04,05,09,35,10.40
2007,04,05,09,36,10.40
2007,04,05,09,37,10.40
2007,04,05,09,38,10.40
2007,04,05,09,39,10.50
2007,04,05,09,40,10.60
2007,04,05,09,41,10.60
2007,04,05,09,42,10.60
2007,04,05,09,43,10.60
2007,04,05,09,44,10.60
2007,04,05,09,45,10.60
2007,04,05,09,46,10.60
2007,04,05,09,47,10.50
2007,04,05,09,48,10.50
2007,04,05,09,49,10.40
2007,04,05,09,50,10.40
2007,04,05,09,51,10.60
2007,04,05,09,52,10.60
2007,04,05,09,53,10.60
2007,04,05,09,54,10.60
2007,04,05,09,55,10.60
2007,04,05,09,56,10.60
2007,04,05,09,57,10.60
2007,04,05,09,58,10.60
2007,04,05,09,59,10.60
2007,04,05,10,00,10.70
2007,04,05,10,01,10.80
2007,04,05,10,02,10.90
2007,04,05,10,03,10.90
2007,04,05,10,04,11.10
2007,04,05,10,05,11.10
2007,04,05,10,06,11.20
2007,04,05,10,07,11.20
2007,04,05,10,08,11.20
2007,04,05,10,09,11.20
2007,04,05,10,10,11.20
2007,04,05,10,11,11.10
2007,04,05,10,12,11.20
2007,04,05,10,13,11.20
2007,04,05,10,14,11.30
2007,04,05,10,15,11.30
2007,04,05,10,16,11.20
2007,04,05,10,17,11.30
2007,04,05,10,18,11.30
2007,04,05,10,19,11.30
2007,04,05,10,20,11.30
2007,04,05,10,21,11.30
2007,04,05,10,22,11.30
2007,04,05,10,23,11.30
2007,04,05,10,24,11.30
2007,04,05,10,25,11.20
2007,04,05,10,26,11.20
2007,04,05,10,27,11.20
2007,04,05,10,28,11.10
2007,04,05,10,29,11.10
2007,04,05,10,30,11.10
2007,04,05,10,31,11.10
2007,04,05,10,32,11.10
2007,04,05,10,33,11.10
2007,04,05,10,34,11.10
2007,04,05,10,35,11.10
2007,04,05,10,36,11.10
2007,04,05,10,37,11.20
2007,04,05,10,38,11.20
2007,04,05,10,39,11.20
2007,04,05,10,40,11.20
2007,04,05,10,41,11.20
2007,04,05,10,42,11.20
2007,04,05,10,43,11.20
2007,04,05,10,44,11.20
2007,04,05,10,45,11.20
2007,04,05,10,46,11.30
2007,04,05,10,47,11.30
2007,04,05,10,48,11.40
2007,04,05,10,49,11.40
2007,04,05,10,50,11.40
2007,04,05,10,51,11.40
2007,04,05,10,52,11.50
2007,04,05,10,53,11.60
2007,04,05,10,54,11.60
2007,04,05,10,55,11.60
2007,04,05,10,56,11.60
2007,04,05,10,57,11.60
2007,04,05,10,58,11.60
2007,04,05,10,59,11.70
2007,04,05,11,00,11.80
2007,04,05,11,01,11.80
2007,04,05,11,02,11.80
2007,04,05,11,03,11.80
2007,04,05,11,04,11.90
2007,04,05,11,05,11.90
2007,04,05,11,06,12.00
2007,04,05,11,07,12.00
2007,04,05,11,08,11.90
2007,04,05,11,09,11.90
2007,04,05,11,10,11.90
2007,04,05,11,11,11.80
2007,04,05,11,12,11.90
2007,04,05,11,13,11.90
2007,04,05,11,14,12.00
2007,04,05,11,15,12.00
2007,04,05,11,16,12.10
2007,04,05,11,17,12.10
2007,04,05,11,18,12.20
2007,04,05,11,19,12.20
2007,04,05,11,20,12.20
2007,04,05,11,21,12.20
2007,04,05,11,22,12.20
2007,04,05,11,23,12.30
2007,04,05,11,24,12.30
2007,04,05,11,25,12.30
2007,04,05,11,26,12.30
2007,04,05,11,27,12.30
2007,04,05,11,28,12.40
2007,04,05,11,29,12.50
2007,04,05,11,30,12.50
2007,04,05,11,31,12.60
2007,04,05,11,32,12.70
2007,04,05,11,33,12.70
2007,04,05,11,34,12.80
2007,04,05,11,35,12.80
2007,04,05,11,36,12.80
2007,04,05,11,37,12.80
2007,04,05,11,38,12.80
2007,04,05,11,39,12.80
2007,04,05,11,40,12.80
2007,04,05,11,41,12.90
2007,04,05,11,42,13.00
2007,04,05,11,43,13.00
2007,04,05,11,44,13.00
2007,04,05,11,45,13.00
2007,04,05,11,46,13.00
2007,04,05,11,47,13.00
2007,04,05,11,48,13.00
2007,04,05,11,49,13.00
2007,04,05,11,50,13.00
2007,04,05,11,51,13.00
2007,04,05,11,52,13.10
2007,04,05,11,53,13.10
2007,04,05,11,54,13.10
2007,04,05,11,55,13.20
2007,04,05,11,56,13.30
2007,04,05,11,57,13.30
2007,04,05,11,58,13.40
2007,04,05,11,59,13.40
2007,04,05,12,00,13.40
2007,04,05,12,01,13.30
2007,04,05,12,02,13.30
2007,04,05,12,03,13.30
2007,04,05,12,04,13.20
2007,04,05,12,05,13.10
2007,04,05,12,06,13.10
2007,04,05,12,07,13.10
2007,04,05,12,08,13.10
2007,04,05,12,09,13.10
2007,04,05,12,10,13.20
2007,04,05,12,11,13.30
2007,04,05,12,12,13.30
2007,04,05,12,13,13.30
2007,04,05,12,14,13.30
2007,04,05,12,15,13.30
2007,04,05,12,16,13.40
2007,04,05,12,17,13.50
2007,04,05,12,18,13.50
2007,04,05,12,19,13.50
2007,04,05,12,20,13.50
2007,04,05,12,21,13.50
2007,04,05,12,22,13.50
2007,04,05,12,23,13.50
2007,04,05,12,24,13.60
2007,04,05,12,25,13.60
2007,04,05,12,26,13.60
2007,04,05,12,27,13.50
2007,04,05,12,28,13.50
2007,04,05,12,29,13.50
2007,04,05,12,30,13.50
2007,04,05,12,31,13.60
2007,04,05,12,32,13.60
2007,04,05,12,33,13.60
2007,04,05,12,34,13.70
2007,04,05,12,35,13.70
2007,04,05,12,36,13.70
2007,04,05,12,37,13.70
2007,04,05,12,38,13.70
2007,04,05,12,39,13.70
2007,04,05,12,40,13.80
2007,04,05,12,41,13.80
2007,04,05,12,42,13.80
2007,04,05,12,43,13.90
2007,04,05,12,44,13.90
2007,04,05,12,45,14.00
2007,04,05,12,46,14.00
2007,04,05,12,47,14.00
2007,04,05,12,48,14.00
2007,04,05,12,49,14.10
2007,04,05,12,50,14.20
2007,04,05,12,51,14.10
2007,04,05,12,52,14.10
2007,04,05,12,53,14.20
2007,04,05,12,54,14.20
2007,04,05,12,55,14.20
2007,04,05,12,56,14.20
2007,04,05,12,57,14.20
2007,04,05,12,58,14.30
2007,04,05,12,59,14.20
2007,04,05,13,00,14.20
2007,04,05,13,01,14.20
2007,04,05,13,02,14.20
2007,04,05,13,03,14.20
2007,04,05,13,04,14.20
2007,04,05,13,05,14.20
2007,04,05,13,06,14.20
2007,04,05,13,07,14.20
2007,04,05,13,08,14.20
2007,04,05,13,09,14.20
2007,04,05,13,10,14.20
2007,04,05,13,11,14.20
2007,04,05,13,12,14.20
2007,04,05,13,13,14.30
2007,04,05,13,14,14.40
2007,04,05,13,15,14.40
2007,04,05,13,16,14.50
2007,04,05,13,17,14.40
2007,04,05,13,18,14.40
2007,04,05,13,19,14.40
2007,04,05,13,20,14.50
2007,04,05,13,21,14.50
2007,04,05,13,22,14.50
2007,04,05,13,23,14.50
2007,04,05,13,24,14.50
2007,04,05,13,25,14.60
2007,04,05,13,26,14.60
2007,04,05,13,27,14.60
2007,04,05,13,28,14.60
2007,04,05,13,29,14.60
2007,04,05,13,30,14.70
2007,04,05,13,31,14.80
2007,04,05,13,32,14.80
2007,04,05,13,33,14.80
2007,04,05,13,34,14.90
2007,04,05,13,35,15.00
2007,04,05,13,36,15.00
2007,04,05,13,37,15.00
2007,04,05,13,38,15.00
2007,04,05,13,39,15.00
2007,04,05,13,40,15.00
2007,04,05,13,41,14.90
2007,04,05,13,42,14.90
2007,04,05,13,43,14.90
2007,04,05,13,44,14.90
2007,04,05,13,45,14.80
2007,04,05,13,46,14.80
2007,04,05,13,47,14.80
2007,04,05,13,48,14.80
2007,04,05,13,49,14.80
2007,04,05,13,50,14.80
2007,04,05,13,51,14.90
2007,04,05,13,52,14.90
2007,04,05,13,53,14.90
2007,04,05,13,54,14.90
2007,04,05,13,55,14.90
2007,04,05,13,56,14.90
2007,04,05,13,57,14.90
2007,04,05,13,58,15.00
2007,04,05,13,59,15.10
2007,04,05,14,00,15.10
2007,04,05,14,01,15.20
2007,04,05,14,02,15.20
2007,04,05,14,03,15.20
2007,04,05,14,04,15.10
2007,04,05,14,05,15.10
2007,04,05,14,06,15.20
2007,04,05,14,07,15.20
2007,04,05,14,08,15.30
2007,04,05,14,09,15.30
2007,04,05,14,10,15.30
2007,04,05,14,11,15.30
2007,04,05,14,12,15.30
2007,04,05,14,13,15.30
2007,04,05,14,14,15.30
2007,04,05,14,15,15.30
2007,04,05,14,16,15.20
2007,04,05,14,17,15.20
2007,04,05,14,18,15.10
2007,04,05,14,19,15.10
2007,04,05,14,20,15.10
2007,04,05,14,21,15.00
2007,04,05,14,22,15.10
2007,04,05,14,23,15.10
2007,04,05,14,24,15.10
2007,04,05,14,25,15.20
2007,04,05,14,26,15.20
2007,04,05,14,27,15.20
2007,04,05,14,28,15.20
2007,04,05,14,29,15.10
2007,04,05,14,30,15.10
2007,04,05,14,31,15.20
2007,04,05,14,32,15.30
2007,04,05,14,33,15.30
2007,04,05,14,34,15.30
2007,04,05,14,35,15.20
2007,04,05,14,36,15.20
2007,04,05,14,37,15.20
2007,04,05,14,38,15.20
2007,04,05,14,39,15.30
2007,04,05,14,40,15.30
2007,04,05,14,41,15.40
2007,04,05,14,42,15.40
2007,04,05,14,43,15.50
2007,04,05,14,44,15.50
2007,04,05,14,45,15.50
2007,04,05,14,46,15.50
2007,04,05,14,47,15.50
2007,04,05,14,48,15.40
2007,04,05,14,49,15.40
2007,04,05,14,50,15.40
2007,04,05,14,51,15.40
2007,04,05,14,52,15.40
2007,04,05,14,53,15.40
2007,04,05,14,54,15.40
2007,04,05,14,55,15.40
2007,04,05,14,56,15.40
2007,04,05,14,57,15.40
2007,04,05,14,58,15.50
2007,04,05,14,59,15.50
2007,04,05,15,00,15.50
2007,04,05,15,01,15.50
2007,04,05,15,02,15.60
2007,04,05,15,03,15.60
2007,04,05,15,04,15.70
2007,04,05,15,05,15.80
2007,04,05,15,06,15.80
2007,04,05,15,07,15.90
2007,04,05,15,08,16.10
2007,04,05,15,09,16.10
2007,04,05,15,10,16.10
2007,04,05,15,11,16.10
2007,04,05,15,12,16.10
2007,04,05,15,13,16.10
2007,04,05,15,14,16.10
2007,04,05,15,15,16.00
2007,04,05,15,16,15.90
2007,04,05,15,17,15.90
2007,04,05,15,18,15.90
2007,04,05,15,19,16.00
2007,04,05,15,20,16.10
2007,04,05,15,21,16.10
2007,04,05,15,22,16.10
2007,04,05,15,23,16.10
2007,04,05,15,24,16.10
2007,04,05,15,25,16.10
2007,04,05,15,26,16.10
2007,04,05,15,27,16.10
2007,04,05,15,28,16.00
2007,04,05,15,29,16.10
2007,04,05,15,30,16.10
2007,04,05,15,31,16.10
2007,04,05,15,32,16.10
2007,04,05,15,33,16.10
2007,04,05,15,34,16.10
2007,04,05,15,35,16.10
2007,04,05,15,36,16.10
2007,04,05,15,37,16.00
2007,04,05,15,38,15.90
2007,04,05,15,39,15.90
2007,04,05,15,40,15.90
2007,04,05,15,41,15.90
2007,04,05,15,42,16.00
2007,04,05,15,43,16.10
2007,04,05,15,44,16.10
2007,04,05,15,45,16.10
2007,04,05,15,46,16.00
2007,04,05,15,47,15.90
2007,04,05,15,48,15.90
2007,04,05,15,49,15.90
2007,04,05,15,50,15.90
2007,04,05,15,51,15.80
2007,04,05,15,52,15.80
2007,04,05,15,53,15.80
2007,04,05,15,54,15.80
2007,04,05,15,55,15.80
2007,04,05,15,56,15.90
2007,04,05,15,57,15.90
2007,04,05,15,58,15.90
2007,04,05,15,59,15.90
2007,04,05,16,00,15.90
2007,04,05,16,01,15.90
2007,04,05,16,02,15.90
2007,04,05,16,03,15.90
2007,04,05,16,04,15.90
2007,04,05,16,05,15.90
2007,04,05,16,06,15.90
2007,04,05,16,07,15.90
2007,04,05,16,08,15.90
2007,04,05,16,09,15.90
2007,04,05,16,10,15.90
2007,04,05,16,11,15.90
2007,04,05,16,12,16.00
2007,04,05,16,13,15.90
2007,04,05,16,14,15.90
2007,04,05,16,15,15.90
2007,04,05,16,16,15.80
2007,04,05,16,17,15.80
2007,04,05,16,18,15.80
2007,04,05,16,19,15.80
2007,04,05,16,20,15.80
2007,04,05,16,21,15.80
2007,04,05,16,22,15.80
2007,04,05,16,23,15.80
2007,04,05,16,24,15.80
2007,04,05,16,25,15.80
2007,04,05,16,26,15.80
2007,04,05,16,27,15.80
2007,04,05,16,28,15.80
2007,04,05,16,29,15.80
2007,04,05,16,30,15.80
2007,04,05,16,31,15.80
2007,04,05,16,32,15.80
2007,04,05,16,33,15.80
2007,04,05,16,34,15.80
2007,04,05,16,35,15.80
2007,04,05,16,36,15.90
2007,04,05,16,37,15.90
2007,04,05,16,38,15.80
2007,04,05,16,39,15.80
2007,04,05,16,40,15.80
2007,04,05,16,41,15.80
2007,04,05,16,42,15.80
2007,04,05,16,43,15.80
2007,04,05,16,44,15.70
2007,04,05,16,45,15.70
2007,04,05,16,46,15.70
2007,04,05,16,47,15.70
2007,04,05,16,48,15.70
2007,04,05,16,49,15.70
2007,04,05,16,50,15.70
2007,04,05,16,51,15.70
2007,04,05,16,52,15.70
2007,04,05,16,53,15.70
2007,04,05,16,54,15.70
2007,04,05,16,55,15.60
2007,04,05,16,56,15.60
2007,04,05,16,57,15.70
2007,04,05,16,58,15.70
2007,04,05,16,59,15.70
2007,04,05,17,00,15.70
2007,04,05,17,01,15.70
2007,04,05,17,02,15.70
2007,04,05,17,03,15.70
2007,04,05,17,04,15.70
2007,04,05,17,05,15.60
2007,04,05,17,06,15.60
2007,04,05,17,07,15.60
2007,04,05,17,08,15.60
2007,04,05,17,09,15.60
2007,04,05,17,10,15.60
2007,04,05,17,11,15.60
2007,04,05,17,12,15.60
2007,04,05,17,13,15.50
2007,04,05,17,14,15.50
2007,04,05,17,15,15.50
2007,04,05,17,16,15.50
2007,04,05,17,17,15.50
2007,04,05,17,18,15.50
2007,04,05,17,19,15.50
2007,04,05,17,20,15.50
2007,04,05,17,21,15.50
2007,04,05,17,22,15.50
2007,04,05,17,23,15.50
2007,04,05,17,24,15.50
2007,04,05,17,25,15.50
2007,04,05,17,26,15.50
2007,04,05,17,27,15.50
2007,04,05,17,28,15.50
2007,04,05,17,29,15.50
2007,04,05,17,30,15.50
2007,04,05,17,31,15.50
2007,04,05,17,32,15.60
2007,04,05,17,33,15.60
2007,04,05,17,34,15.60
2007,04,05,17,35,15.60
2007,04,05,17,36,15.60
2007,04,05,17,37,15.60
2007,04,05,17,38,15.60
2007,04,05,17,39,15.60
2007,04,05,17,40,15.60
2007,04,05,17,41,15.60
2007,04,05,17,42,15.60
2007,04,05,17,43,15.60